Terminal Aerodrome Forecast
Issued by NWS

Home | Current Version | Previous Version | Text Only | Print | Product List | Glossary On
Versions: 1 2 3 4 5 6 7 8 9 10 11 12 13 14 15 16 17 18 19 20 21 22 23
000
FTUS43 KMQT 211400 AAA
TAFCMX
TAF AMD
KCMX 211406Z 2114/2212 10004KT 1/2SM FG OVC002
     FM211500 10006KT 6SM BR OVC008
     FM211700 10008KT P6SM BKN025
     FM211900 10008KT P6SM SCT045
     FM212300 10006KT P6SM BKN045
     FM220300 10006KT 2SM -RA BR OVC015=

USA.gov is the U.S. government's official web portal to all federal, state and local government web resources and services.